Location: Bílinka
(49.3579°N, 14.3767°E)
Time: 10:54:34
(UTC+00:00)

COSMOS 2455 - Visible Passes

Search period start: 28 September 2023 00:00
Search period end: 08 October 2023 00:00
Orbit: 901 x 908 km, 67.1° (Epoch: 28 September)

Date Brightness Start Highest point End Pass type
(mag) Time Alt. Az. Time Alt. Az. Time Alt. Az.
28 Sep 3.4 17:13:39 10° NNW 17:19:22 42° NE 17:25:02 10° ESE visible
28 Sep 3.6 18:59:40 10° NW 19:05:25 48° WSW 19:09:16 20° S visible
29 Sep 3.1 17:17:32 10° NNW 17:23:26 52° NE 17:29:17 10° ESE visible
29 Sep 4.1 19:03:46 10° NW 19:09:13 37° WSW 19:13:42 14° S visible
30 Sep 2.9 17:21:25 10° NNW 17:27:27 64° NE 17:33:24 10° SE visible
30 Sep 4.6 19:07:57 10° NW 19:12:58 28° WSW 19:17:58 10° SSW visible
01 Oct 2.9 17:25:21 10° NW 17:31:25 81° NE 17:37:26 10° SE visible
01 Oct 5.0 19:12:16 10° WNW 19:16:40 21° WSW 19:21:03 10° SSW visible
02 Oct 3.0 17:29:18 10° NW 17:35:21 81° WSW 17:41:21 10° SSE visible
02 Oct 5.3 19:16:51 10° WNW 19:20:20 16° WSW 19:23:49 10° SW visible
03 Oct 3.4 17:33:16 10° NW 17:39:14 63° WSW 17:45:08 10° SSE visible
03 Oct 5.6 19:22:05 10° W 19:23:58 11° W 19:25:51 10° WSW visible
04 Oct 3.8 17:37:18 10° NW 17:43:04 49° WSW 17:48:48 10° S visible
05 Oct 4.4 17:41:23 10° NW 17:46:52 37° WSW 17:52:18 10° S visible
06 Oct 4.9 17:45:34 10° NW 17:50:38 29° WSW 17:55:38 10° SSW visible
07 Oct 5.4 17:49:53 10° WNW 17:54:20 22° WSW 17:58:46 10° SSW visible
